Location: Newark
(44.6028°N, 124.0883°W)
Time: 05:28:13
(UTC+00:00)

SR - Visible Passes

Search period start: 19 October 2019 00:00
Search period end: 29 October 2019 00:00
Orbit: 575 x 881 km, 66.7° (Epoch: 18 October)

Date Brightness Start Highest point End Pass type
(mag) Time Alt. Az. Time Alt. Az. Time Alt. Az.
19 Oct ? 12:49:54 10° N 12:52:37 13° NNE 12:55:21 10° NE visible
20 Oct ? 13:41:15 10° NNW 13:46:15 28° NE 13:51:16 10° E visible
21 Oct ? 12:52:01 10° N 12:56:02 19° NE 13:00:05 10° ENE visible
22 Oct ? 12:03:03 10° N 12:05:39 13° NNE 12:08:15 10° NE visible
22 Oct ? 13:43:45 10° NNW 13:49:21 42° NE 13:54:57 10° ESE visible
23 Oct ? 12:54:23 10° NNW 12:59:19 27° NE 13:04:15 10° E visible
24 Oct ? 12:05:09 10° N 12:09:04 18° NE 12:13:01 10° ENE visible
24 Oct ? 13:46:23 10° NNW 13:52:18 68° NE 13:58:10 10° SE visible
25 Oct ? 11:16:13 10° N 11:18:39 12° NNE 11:21:07 10° NE visible
25 Oct ? 12:56:53 10° NNW 13:02:26 40° NE 13:07:58 10° ESE visible
26 Oct ? 12:07:30 10° NNW 12:12:22 26° NE 12:17:15 10° E visible
26 Oct ? 13:49:10 10° NW 13:55:06 75° WSW 14:00:56 10° SSE visible
27 Oct ? 11:19:30 13° N 11:22:07 17° NNE 11:25:57 10° ENE visible
27 Oct ? 12:59:29 10° NNW 13:05:24 65° NE 13:11:14 10° SE visible
28 Oct ? 10:31:50 12° NNE 10:31:50 12° NNE 10:33:58 10° NE visible
28 Oct ? 12:11:18 16° NNW 12:15:30 39° NE 12:20:59 10° ESE visible
28 Oct ? 13:52:09 10° NW 13:57:44 43° WSW 14:03:12 10° S visible
